TimeEST,TemperatureF,Dew PointF,Humidity,Sea Level PressureIn,VisibilityMPH,Wind Direction,Wind SpeedMPH,Gust SpeedMPH,PrecipitationIn,Events,Conditions,WindDirDegrees,DateUTC
12:15 AM,24.8,21.2,86,29.93,5.0,WNW,3.5,-,N/A,Snow,Light Snow,300,2013-03-03 05:15:00
12:35 AM,24.8,21.2,86,29.93,5.0,NW,3.5,-,0.01,Snow,Light Snow,310,2013-03-03 05:35:00
12:55 AM,24.8,21.2,86,29.93,5.0,Calm,Calm,-,0.03,Snow,Light Snow,0,2013-03-03 05:55:00
1:15 AM,24.8,21.2,86,29.93,4.0,West,4.6,-,0.01,Snow,Light Snow,280,2013-03-03 06:15:00
1:35 AM,24.8,21.2,86,29.93,8.0,WNW,4.6,-,0.02,Snow,Light Snow,290,2013-03-03 06:35:00
2:15 AM,24.8,21.2,86,29.92,5.0,West,5.8,-,0.02,Snow,Light Snow,280,2013-03-03 07:15:00
2:55 AM,24.8,23.0,93,29.92,4.0,West,5.8,-,0.18,Snow,Light Snow,280,2013-03-03 07:55:00
3:15 AM,24.8,23.0,93,29.91,6.0,West,8.1,-,0.01,Snow,Light Snow,280,2013-03-03 08:15:00
3:35 AM,24.8,21.2,86,29.91,10.0,West,8.1,-,0.01,Snow,Light Snow,280,2013-03-03 08:35:00
3:55 AM,24.8,21.2,86,29.91,9.0,West,6.9,-,0.02,Snow,Light Snow,280,2013-03-03 08:55:00
4:15 AM,24.8,21.2,86,29.92,10.0,WNW,4.6,-,N/A,Snow,Light Snow,290,2013-03-03 09:15:00
4:35 AM,24.8,21.2,86,29.92,5.0,WNW,4.6,-,N/A,Snow,Light Snow,300,2013-03-03 09:35:00
4:55 AM,24.8,21.2,86,29.92,9.0,West,6.9,-,0.02,Snow,Light Snow,280,2013-03-03 09:55:00
5:15 AM,24.8,21.2,86,29.92,10.0,WNW,10.4,-,N/A,Snow,Light Snow,290,2013-03-03 10:15:00
5:35 AM,23.0,21.2,93,29.92,10.0,WNW,4.6,-,N/A,Snow,Light Snow,300,2013-03-03 10:35:00
5:55 AM,24.8,21.2,86,29.92,8.0,WNW,3.5,-,N/A,Snow,Light Snow,290,2013-03-03 10:55:00
6:35 AM,23.0,21.2,93,29.92,8.0,WNW,5.8,-,N/A,Snow,Light Snow,300,2013-03-03 11:35:00
6:55 AM,23.0,21.2,93,29.93,9.0,WNW,6.9,-,0.01,Snow,Light Snow,290,2013-03-03 11:55:00
7:15 AM,23.0,21.2,93,29.93,3.0,WNW,5.8,-,0.02,Snow,Light Snow,290,2013-03-03 12:15:00
7:35 AM,23.0,21.2,93,29.94,2.0,NW,4.6,-,0.06,Snow,Light Snow,310,2013-03-03 12:35:00
7:55 AM,23.0,21.2,93,29.94,2.5,Calm,Calm,-,0.09,Snow,Light Snow,0,2013-03-03 12:55:00
8:35 AM,24.8,21.2,86,29.94,1.0,WNW,4.6,-,0.16,Snow,Light Snow,290,2013-03-03 13:35:00
8:55 AM,24.8,23.0,93,29.94,0.5,West,5.8,-,0.34,Snow,Light Snow,280,2013-03-03 13:55:00
9:15 AM,24.8,21.2,86,29.94,1.2,West,6.9,-,0.05,Snow,Light Snow,270,2013-03-03 14:15:00
9:35 AM,24.8,21.2,86,29.95,1.0,WSW,5.8,-,0.26,Snow,Light Snow,250,2013-03-03 14:35:00
9:55 AM,24.8,21.2,86,29.94,1.0,West,6.9,-,0.41,Snow,Light Snow,270,2013-03-03 14:55:00
10:15 AM,23.0,23.0,100,29.94,0.5,NW,3.5,-,0.30,Snow,Light Snow,310,2013-03-03 15:15:00
10:55 AM,24.8,21.2,86,29.94,0.8,NW,6.9,-,0.70,Snow,Light Snow,320,2013-03-03 15:55:00
11:15 AM,24.8,21.2,86,29.94,0.8,NNW,8.1,-,0.13,Snow,Light Snow,340,2013-03-03 16:15:00
11:35 AM,24.8,21.2,86,29.94,1.5,NW,6.9,-,0.23,Snow,Light Snow,320,2013-03-03 16:35:00
11:55 AM,26.6,21.2,80,29.94,2.5,NW,4.6,-,0.31,Snow,Light Snow,310,2013-03-03 16:55:00
12:15 PM,26.6,21.2,80,29.93,5.0,NW,5.8,-,N/A,Snow,Light Snow,310,2013-03-03 17:15:00
12:35 PM,26.6,21.2,80,29.93,1.0,WNW,5.8,-,0.09,Snow,Light Snow,290,2013-03-03 17:35:00
12:55 PM,26.6,21.2,80,29.92,2.0,West,8.1,-,0.20,Snow,Light Snow,270,2013-03-03 17:55:00
1:15 PM,26.6,19.4,74,29.92,4.0,West,8.1,-,N/A,Snow,Light Snow,280,2013-03-03 18:15:00
1:35 PM,26.6,21.2,80,29.92,1.0,WNW,5.8,-,0.15,Snow,Light Snow,290,2013-03-03 18:35:00
1:55 PM,26.6,23.0,86,29.91,3.0,West,4.6,-,0.19,Snow,Light Snow,270,2013-03-03 18:55:00
2:15 PM,26.6,21.2,80,29.91,1.8,West,9.2,-,0.03,Snow,Light Snow,270,2013-03-03 19:15:00
2:35 PM,26.6,19.4,74,29.91,5.0,WSW,11.5,-,0.03,Snow,Light Snow,250,2013-03-03 19:35:00
2:55 PM,26.6,21.2,80,29.91,2.0,WSW,9.2,-,0.06,Snow,Light Snow,250,2013-03-03 19:55:00
3:15 PM,26.6,21.2,80,29.92,4.0,WSW,12.7,-,N/A,Snow,Light Snow,250,2013-03-03 20:15:00
4:15 PM,24.8,19.4,80,29.93,10.0,West,11.5,-,N/A,Snow,Light Snow,260,2013-03-03 21:15:00
4:35 PM,26.6,19.4,74,29.93,9.0,West,8.1,-,N/A,Snow,Light Snow,260,2013-03-03 21:35:00
4:55 PM,26.6,19.4,74,29.93,4.0,West,6.9,-,0.01,Snow,Light Snow,270,2013-03-03 21:55:00
5:35 PM,24.8,19.4,80,29.95,4.0,West,8.1,-,0.11,Snow,Light Snow,280,2013-03-03 22:35:00
5:55 PM,24.8,19.4,80,29.95,9.0,West,9.2,-,0.15,Snow,Light Snow,280,2013-03-03 22:55:00
6:15 PM,24.8,19.4,80,29.95,10.0,West,10.4,-,N/A,,Scattered Clouds,270,2013-03-03 23:15:00
6:55 PM,23.0,19.4,86,29.97,8.0,West,9.2,17.3,0.01,Snow,Light Snow,280,2013-03-03 23:55:00
7:15 PM,23.0,19.4,86,29.98,6.0,West,8.1,-,N/A,Snow,Light Snow,270,2013-03-04 00:15:00
7:35 PM,23.0,17.6,80,29.98,9.0,West,9.2,-,0.02,Snow,Light Snow,280,2013-03-04 00:35:00
7:55 PM,23.0,17.6,80,29.98,10.0,West,8.1,-,0.03,Snow,Light Snow,270,2013-03-04 00:55:00
8:15 PM,23.0,17.6,80,29.99,10.0,WSW,5.8,-,N/A,,Overcast,240,2013-03-04 01:15:00
8:35 PM,23.0,17.6,80,29.99,10.0,West,8.1,-,N/A,,Overcast,260,2013-03-04 01:35:00
8:55 PM,23.0,15.8,74,29.99,10.0,West,6.9,-,N/A,,Overcast,270,2013-03-04 01:55:00
9:15 PM,23.0,15.8,74,30.00,10.0,WSW,5.8,-,N/A,,Overcast,250,2013-03-04 02:15:00
9:35 PM,23.0,15.8,74,30.00,10.0,West,8.1,-,N/A,Snow,Light Snow,260,2013-03-04 02:35:00
9:55 PM,23.0,17.6,80,30.00,7.0,WSW,4.6,-,N/A,Snow,Light Snow,250,2013-03-04 02:55:00
10:15 PM,23.0,17.6,80,30.00,9.0,WSW,4.6,-,N/A,Snow,Light Snow,250,2013-03-04 03:15:00
10:35 PM,23.0,17.6,80,29.99,10.0,WSW,4.6,-,N/A,,Overcast,240,2013-03-04 03:35:00
10:55 PM,23.0,17.6,80,30.00,10.0,WSW,5.8,-,N/A,Snow,Light Snow,250,2013-03-04 03:55:00
11:15 PM,23.0,17.6,80,30.00,10.0,WSW,4.6,-,N/A,,Mostly Cloudy,250,2013-03-04 04:15:00
11:35 PM,23.0,19.4,86,30.00,5.0,West,5.8,-,N/A,,Mostly Cloudy,270,2013-03-04 04:35:00
11:55 PM,23.0,19.4,86,30.00,5.0,West,4.6,-,0.02,Snow,Light Snow,260,2013-03-04 04:55:00